Weather History for Marathon, FL

Change the Weather History Date:

Sunday, January 26, 2014

  Actual Average Record
Temperature  
Mean Temperature 72 °F 70 °F  
Max Temperature 80 °F 76 °F 82 °F (2012)
Min Temperature 63 °F 65 °F 54 °F (2001)
Degree Days  
Heating Degree Days 0 1  
Month to date heating degree days 33 35  
Since 1 July heating degree days 34 56  
Cooling Degree Days 7 6  
Month to date cooling degree days 142 156  
Year to date cooling degree days 142 156  
Growing Degree Days 21 (Base 50)    
Moisture  
Dew Point 62 °F    
Average Humidity 77    
Maximum Humidity 93    
Minimum Humidity 60    
Precipitation  
Precipitation 0.00 in 0.06 in 0.95 in (2011)
Month to date precipitation 0.78 1.30  
Year to date precipitation 0.78 1.30  
Snow  
Snow 0.00 in - - ()
Month to date snowfall 0.0  
Since 1 July snowfall 0.0  
Snow Depth 0.00 in    
Sea Level Pressure  
Sea Level Pressure 30.04 in    
Wind  
Wind Speed 5 mph (East)    
Max Wind Speed 10 mph    
Max Gust Speed 15 mph    
Visibility 10 miles    
Events      
T = Trace of Precipitation, MM = Missing Value Source: NWS Daily Summary

Daily Weather History Graph

Daily Weather History Graph

Search for Another Location

Airport:

Trip Planner

Search our weather history database for the weather conditions in past years. The results will help you decide how hot, cold, wet, or windy it might be!

Date:

Astronomy

Jan. 26, 2014 Rise Set
Actual Time 7:08 AM EST 6:05 PM EST
Civil Twilight 6:44 AM EST 6:29 PM EST
Nautical Twilight 6:16 AM EST 6:56 PM EST
Astronomical Twilight 5:49 AM EST 7:24 PM EST
Moon 2:42 AM EST (1/26) 1:56 PM EST (1/26)
Length of Visible Light 11h 44m
Length of Day
10h 56m
Waning Crescent, 24% of the Moon is Illuminated
Jan 26
Waning Crescent
Jan 30
New
Feb 6
First Quarter
Feb 14
Full
Feb 22
Last Quarter

Hourly Weather History & Observations

Time (EST) Temp. Dew Point Humidity Pressure Visibility Wind Dir Wind Speed Gust Speed Precip Events Conditions
12:53 AM 64.0 °F 62.1 °F 93% 30.08 in 10.0 mi NNW 6.9 mph - N/A   Clear
1:53 AM 64.0 °F 62.1 °F 93% 30.07 in 10.0 mi North 6.9 mph - N/A   Clear
2:53 AM 64.0 °F 59.0 °F 84% 30.06 in 10.0 mi North 6.9 mph - N/A   Clear
3:53 AM 64.0 °F 57.9 °F 80% 30.05 in 10.0 mi NNE 8.1 mph - N/A   Mostly Cloudy
4:53 AM 63.0 °F 57.0 °F 81% 30.05 in 10.0 mi NNE 8.1 mph - N/A   Clear
5:53 AM 63.0 °F 57.9 °F 84% 30.05 in 10.0 mi NE 8.1 mph - N/A   Clear
6:53 AM 63.0 °F 57.0 °F 81% 30.07 in 10.0 mi NE 6.9 mph - N/A   Clear
7:53 AM 64.0 °F 57.9 °F 80% 30.07 in 10.0 mi ENE 3.5 mph - N/A   Clear
8:53 AM 68.0 °F 60.1 °F 76% 30.08 in 10.0 mi ESE 3.5 mph - N/A   Clear
9:53 AM 73.0 °F 64.0 °F 73% 30.08 in 10.0 mi ESE 6.9 mph - N/A   Unknown
10:53 AM 75.9 °F 64.9 °F 69% 30.08 in 10.0 mi ESE 4.6 mph - N/A   Clear
11:53 AM 75.9 °F 66.0 °F 71% 30.07 in 10.0 mi SE 5.8 mph - N/A   Clear
12:53 PM 79.0 °F 64.9 °F 62% 30.04 in 10.0 mi Variable 3.5 mph - N/A   Clear
1:53 PM 79.0 °F 64.0 °F 60% 30.01 in 10.0 mi SE 4.6 mph - N/A   Clear
2:53 PM 78.1 °F 64.0 °F 62% 30.00 in 10.0 mi Variable 4.6 mph - N/A   Clear
3:53 PM 77.0 °F 63.0 °F 62% 29.99 in 10.0 mi SE 5.8 mph - N/A   Clear
4:53 PM 77.0 °F 62.1 °F 60% 30.00 in 10.0 mi Calm Calm - N/A   Scattered Clouds
5:53 PM 72.0 °F 64.0 °F 76% 30.01 in 10.0 mi NNE 3.5 mph - N/A   Clear
6:53 PM 73.0 °F 64.0 °F 73% 30.01 in 10.0 mi Variable 3.5 mph - N/A   Overcast
7:53 PM 73.0 °F 64.0 °F 73% 30.02 in 10.0 mi East 3.5 mph - N/A   Overcast
8:53 PM 72.0 °F 64.0 °F 76% 30.03 in 10.0 mi ESE 4.6 mph - N/A   Clear
9:53 PM 72.0 °F 63.0 °F 73% 30.03 in 10.0 mi ESE 3.5 mph - N/A   Clear
10:53 PM 72.0 °F 63.0 °F 73% 30.03 in 10.0 mi ESE 3.5 mph - N/A   Clear
11:53 PM 71.1 °F 63.0 °F 75% 30.02 in 10.0 mi ESE 4.6 mph - N/A   Clear